This is the latest recevied weather packets stored in our database for station/object WV8BRW. If no packets are shown the sender has not sent any weather packets the latest 10 day(s).
| Time | Temp. | Humidity | Pressure | Rain* | Wind** | Luminosity | Snow |
|---|---|---|---|---|---|---|---|
| 1778058127 | 14.44° C | 99% | 1005 hPa | 11.94 mm | - | 0 W/m² | - |
| 1778057824 | 14.44° C | 99% | 1004.9 hPa | 12.7 mm | - | 0 W/m² | - |
| 1778057520 | 14.44° C | 99% | 1004.8 hPa | 4.32 mm | - | 0 W/m² | - |
| 1778057217 | 14.44° C | 99% | 1004.8 hPa | 3.05 mm | - | 0 W/m² | - |
| 1778056913 | 14.44° C | 99% | 1004.8 hPa | 1.78 mm | - | 0 W/m² | - |
| 1778056610 | 14.44° C | 99% | 1004.8 hPa | 1.78 mm | - | 0 W/m² | - |
| 1778056308 | 14.44° C | 99% | 1004.8 hPa | 0 mm | - | 0 W/m² | - |
| 1778056005 | 14.44° C | 99% | 1004.7 hPa | 0 mm | - | 0 W/m² | - |
| 1778055700 | 14.44° C | 99% | 1004.7 hPa | 0 mm | - | 0 W/m² | - |
| 1778055398 | 14.44° C | 99% | 1004.7 hPa | 1.27 mm | - | 0 W/m² | - |
| 1778055096 | 14.44° C | 99% | 1004.9 hPa | 3.05 mm | - | 0 W/m² | - |
| 1778054793 | 14.44° C | 99% | 1004.8 hPa | 1.78 mm | - | 0 W/m² | - |
| 1778054490 | 14.44° C | 99% | 1004.8 hPa | 1.27 mm | - | 0 W/m² | - |
| 1778054187 | 14.44° C | 99% | 1005.1 hPa | 3.05 mm | - | 0 W/m² | - |
| 1778053883 | 14.44° C | 99% | 1005.2 hPa | 4.83 mm | - | 0 W/m² | - |
| 1778053582 | 14.44° C | 99% | 1005 hPa | 4.83 mm | - | 0 W/m² | - |
| 1778053279 | 14.44° C | 99% | 1005.3 hPa | 3.05 mm | - | 0 W/m² | - |
| 1778052976 | 14.44° C | 99% | 1005.1 hPa | 3.05 mm | - | 0 W/m² | - |
| 1778052674 | 14.44° C | 99% | 1005 hPa | 3.05 mm | - | 0 W/m² | - |
| 1778052370 | 14.44° C | 99% | 1004.9 hPa | 1.27 mm | - | 0 W/m² | - |
| 1778052068 | 14.44° C | 99% | 1005 hPa | 0 mm | - | 0 W/m² | - |
| 1778051765 | 14.44° C | 99% | 1005 hPa | 0 mm | - | 0 W/m² | - |
| 1778051463 | 14.44° C | 99% | 1004.9 hPa | 0 mm | - | 0 W/m² | - |
| 1778051160 | 14.44° C | 99% | 1005 hPa | 0 mm | - | 0 W/m² | - |
| 1778050857 | 14.44° C | 99% | 1005.2 hPa | 0 mm | - | 0 W/m² | - |
* Rain latest hour (hover to see other rain measurements)
** Current wind speed in m/s (hover to see current wind gust speed)